Location: Spring Creek
(38.2870°N, 100.2160°W)
Time: 14:43:51
(UTC+00:00)

Cosmos 2297 Rocket - Pass Details

Date: 28 September 2021
Orbit: 841 x 842 km, 71.0° (Epoch: 27 October)

Event Time Altitude Azimuth Distance (km) Brightness Sun altitude
Rises 03:08:26 0° 347° (NNW) 3,403 5.8 -31.2°
Reaches altitude 10° 03:11:14 10° 359° (N) 2,465 4.9 -31.7°
Enters shadow 03:13:07 19° 13° (NNE) 1,924 4.1 -32.1°
